• In Russia
  • List of Countries
  • For 7 days
  • Water Temperature
  • Satellite Maps
  • Weather Map
  • Weather Widgets
  • user-avatar
    Login

    Hourly Weather El Quseir

    Today, 24 February, Saturday

    Time Temperature Precipitation Wind Pressure Humidity
    00:00 +24°C° 0 mm 3 mps 754 mmHg 59%
    01:00 +22°C° 0 mm 4 mps 754 mmHg 64%
    02:00 +22°C° 0 mm 4 mps 754 mmHg 66%
    03:00 +22°C° 0 mm 5 mps 755 mmHg 67%
    04:00 +22°C° 0 mm 5 mps 755 mmHg 68%
    05:00 +21°C° 0 mm 6 mps 755 mmHg 70%
    06:00 +22°C° 0 mm 6 mps 755 mmHg 67%
    07:00 +22°C° 0 mm 6 mps 756 mmHg 65%
    08:00 +22°C° 0 mm 6 mps 756 mmHg 62%
    09:00 +24°C° 0 mm 7 mps 756 mmHg 53%
    10:00 +26°C° 0 mm 7 mps 756 mmHg 43%
    11:00 +28°C° 0 mm 7 mps 756 mmHg 34%
    12:00 +28°C° 0 mm 7 mps 756 mmHg 31%
    13:00 +29°C° 0 mm 7 mps 756 mmHg 28%
    14:00 +29°C° 0 mm 8 mps 756 mmHg 25%
    15:00 +28°C° 0 mm 7 mps 756 mmHg 26%
    16:00 +28°C° 0 mm 7 mps 756 mmHg 27%
    17:00 +27°C° 0 mm 7 mps 756 mmHg 27%
    18:00 +26°C° 0 mm 6 mps 757 mmHg 31%
    19:00 +24°C° 0 mm 6 mps 757 mmHg 34%
    20:00 +23°C° 0 mm 5 mps 757 mmHg 37%
    21:00 +22°C° 0 mm 5 mps 757 mmHg 38%
    22:00 +21°C° 0 mm 4 mps 757 mmHg 39%
    23:00 +20°C° 0 mm 4 mps 758 mmHg 40%

    Tomorrow, 25 February, Sunday

    Time Temperature Precipitation Wind Pressure Humidity
    00:00 +20°C° 0 mm 4 mps 758 mmHg 41%
    01:00 +19°C° 0 mm 4 mps 758 mmHg 42%
    02:00 +19°C° 0 mm 4 mps 758 mmHg 43%
    03:00 +18°C° 0 mm 4 mps 758 mmHg 43%
    04:00 +18°C° 0 mm 4 mps 758 mmHg 43%
    05:00 +18°C° 0 mm 3 mps 758 mmHg 43%
    06:00 +19°C° 0 mm 3 mps 758 mmHg 38%
    07:00 +21°C° 0 mm 2 mps 759 mmHg 33%
    08:00 +24°C° 0 mm 2 mps 759 mmHg 28%
    09:00 +25°C° 0 mm 2 mps 759 mmHg 25%
    10:00 +26°C° 0 mm 2 mps 759 mmHg 22%
    11:00 +28°C° 0 mm 2 mps 759 mmHg 19%
    12:00 +28°C° 0 mm 2 mps 758 mmHg 19%
    13:00 +29°C° 0 mm 2 mps 758 mmHg 19%
    14:00 +29°C° 0 mm 3 mps 757 mmHg 18%
    15:00 +29°C° 0 mm 3 mps 757 mmHg 20%
    16:00 +28°C° 0 mm 3 mps 757 mmHg 21%
    17:00 +28°C° 0 mm 3 mps 757 mmHg 22%
    18:00 +27°C° 0 mm 3 mps 757 mmHg 24%
    19:00 +26°C° 0 mm 3 mps 757 mmHg 26%
    20:00 +25°C° 0 mm 3 mps 758 mmHg 27%
    21:00 +24°C° 0 mm 3 mps 757 mmHg 27%
    22:00 +24°C° 0 mm 3 mps 757 mmHg 26%
    23:00 +23°C° 0 mm 4 mps 757 mmHg 26%

    Day after tomorrow, 26 February, Monday

    Time Temperature Precipitation Wind Pressure Humidity
    00:00 +23°C° 0 mm 4 mps 756 mmHg 25%
    01:00 +24°C° 0 mm 3 mps 756 mmHg 24%
    02:00 +24°C° 0 mm 3 mps 756 mmHg 23%
    03:00 +22°C° 0 mm 3 mps 756 mmHg 23%
    04:00 +22°C° 0 mm 3 mps 755 mmHg 23%
    05:00 +22°C° 0 mm 3 mps 755 mmHg 23%
    06:00 +24°C° 0 mm 3 mps 755 mmHg 21%
    07:00 +26°C° 0 mm 2 mps 756 mmHg 19%
    08:00 +27°C° 0 mm 2 mps 756 mmHg 17%
    09:00 +28°C° 0 mm 2 mps 756 mmHg 16%
    10:00 +30°C° 0 mm 3 mps 756 mmHg 16%
    11:00 +31°C° 0 mm 3 mps 756 mmHg 15%
    12:00 +31°C° 0 mm 3 mps 755 mmHg 17%
    13:00 +32°C° 0 mm 4 mps 755 mmHg 20%
    14:00 +30°C° 0 mm 4 mps 754 mmHg 22%
    15:00 +30°C° 0 mm 3 mps 754 mmHg 24%
    16:00 +29°C° 0 mm 3 mps 754 mmHg 26%
    17:00 +28°C° 0 mm 2 mps 754 mmHg 28%
    18:00 +27°C° 0 mm 2 mps 755 mmHg 31%
    19:00 +26°C° 0 mm 2 mps 755 mmHg 34%
    20:00 +25°C° 0 mm 1 mps 756 mmHg 37%
    21:00 +25°C° 0 mm 2 mps 756 mmHg 37%
    22:00 +24°C° 0 mm 2 mps 756 mmHg 37%
    23:00 +24°C° 0 mm 2 mps 756 mmHg 37%

    27 February, Tuesday

    Time Temperature Precipitation Wind Pressure Humidity
    00:00 +22°C° 0 mm 3 mps 756 mmHg 38%
    01:00 +22°C° 0 mm 3 mps 756 mmHg 39%
    02:00 +22°C° 0 mm 4 mps 756 mmHg 40%
    03:00 +21°C° 0 mm 4 mps 756 mmHg 42%
    04:00 +21°C° 0 mm 4 mps 756 mmHg 45%
    05:00 +20°C° 0 mm 4 mps 756 mmHg 47%
    06:00 +21°C° 0 mm 4 mps 757 mmHg 43%
    07:00 +24°C° 0 mm 3 mps 757 mmHg 40%
    08:00 +25°C° 0 mm 3 mps 758 mmHg 36%
    09:00 +26°C° 0 mm 3 mps 758 mmHg 32%
    10:00 +27°C° 0 mm 3 mps 758 mmHg 29%
    11:00 +28°C° 0 mm 3 mps 758 mmHg 25%
    12:00 +29°C° 0 mm 4 mps 757 mmHg 25%
    13:00 +29°C° 0 mm 4 mps 757 mmHg 24%
    14:00 +29°C° 0 mm 5 mps 756 mmHg 24%
    15:00 +29°C° 0 mm 4 mps 756 mmHg 26%
    16:00 +28°C° 0 mm 4 mps 756 mmHg 29%
    17:00 +27°C° 0 mm 4 mps 756 mmHg 31%
    18:00 +26°C° 0 mm 3 mps 757 mmHg 34%
    19:00 +25°C° 0 mm 3 mps 757 mmHg 37%
    20:00 +24°C° 0 mm 3 mps 758 mmHg 40%
    21:00 +24°C° 0 mm 3 mps 758 mmHg 40%
    22:00 +22°C° 0 mm 3 mps 758 mmHg 40%
    23:00 +22°C° 0 mm 4 mps 758 mmHg 40%

    28 February, Wednesday

    Time Temperature Precipitation Wind Pressure Humidity
    00:00 +21°C° 0 mm 4 mps 758 mmHg 40%
    01:00 +21°C° 0 mm 4 mps 758 mmHg 41%
    02:00 +21°C° 0 mm 5 mps 758 mmHg 42%
    03:00 +20°C° 0 mm 5 mps 758 mmHg 43%
    04:00 +20°C° 0 mm 5 mps 758 mmHg 45%
    05:00 +20°C° 0 mm 5 mps 758 mmHg 46%
    06:00 +21°C° 0 mm 5 mps 758 mmHg 43%
    07:00 +22°C° 0 mm 5 mps 758 mmHg 39%
    08:00 +23°C° 0 mm 5 mps 759 mmHg 36%
    09:00 +25°C° 0 mm 4 mps 759 mmHg 32%
    10:00 +26°C° 0 mm 4 mps 758 mmHg 27%
    11:00 +27°C° 0 mm 4 mps 758 mmHg 23%
    12:00 +28°C° 0 mm 4 mps 757 mmHg 23%
    13:00 +28°C° 0 mm 5 mps 757 mmHg 23%
    14:00 +29°C° 0 mm 5 mps 756 mmHg 23%
    15:00 +28°C° 0 mm 5 mps 756 mmHg 25%
    16:00 +27°C° 0 mm 4 mps 756 mmHg 28%
    17:00 +27°C° 0 mm 3 mps 756 mmHg 30%
    18:00 +26°C° 0 mm 3 mps 756 mmHg 33%
    19:00 +25°C° 0 mm 3 mps 757 mmHg 36%
    20:00 +24°C° 0 mm 3 mps 757 mmHg 38%
    21:00 +22°C° 0 mm 4 mps 757 mmHg 38%
    22:00 +22°C° 0 mm 4 mps 757 mmHg 38%
    23:00 +21°C° 0 mm 5 mps 757 mmHg 38%

    1 March, Thursday

    Time Temperature Precipitation Wind Pressure Humidity
    00:00 +21°C° 0 mm 6 mps 757 mmHg 38%
    01:00 +20°C° 0 mm 6 mps 757 mmHg 37%
    02:00 +20°C° 0 mm 6 mps 757 mmHg 36%
    03:00 +20°C° 0 mm 7 mps 757 mmHg 36%
    04:00 +20°C° 0 mm 7 mps 757 mmHg 36%
    05:00 +18°C° 0 mm 7 mps 757 mmHg 36%
    06:00 +20°C° 0 mm 7 mps 757 mmHg 34%
    07:00 +21°C° 0 mm 8 mps 758 mmHg 31%
    08:00 +22°C° 0 mm 8 mps 758 mmHg 28%
    09:00 +23°C° 0 mm 8 mps 758 mmHg 25%
    10:00 +26°C° 0 mm 9 mps 758 mmHg 21%
    11:00 +27°C° 0 mm 9 mps 758 mmHg 17%
    12:00 +28°C° 0 mm 9 mps 758 mmHg 16%
    13:00 +28°C° 0 mm 9 mps 757 mmHg 15%
    14:00 +29°C° 0 mm 9 mps 757 mmHg 13%
    15:00 +28°C° 0 mm 9 mps 757 mmHg 14%
    16:00 +27°C° 0 mm 8 mps 757 mmHg 15%
    17:00 +27°C° 0 mm 8 mps 757 mmHg 15%
    18:00 +26°C° 0 mm 8 mps 757 mmHg 17%
    19:00 +24°C° 0 mm 7 mps 758 mmHg 19%
    20:00 +22°C° 0 mm 7 mps 758 mmHg 22%
    21:00 +22°C° 0 mm 7 mps 758 mmHg 22%
    22:00 +22°C° 0 mm 7 mps 758 mmHg 22%
    23:00 +21°C° 0 mm 7 mps 758 mmHg 23%
    Show more